Weather History for Phnom Penh, Cambodia

Change the Weather History Date:

Thursday, August 1, 2013

  Actual Average Record
Temperature  
Mean Temperature 84 °F -  
Max Temperature 91 °F 88 °F 95 °F (2002)
Min Temperature 78 °F 77 °F 75 °F (2005)
Cooling Degree Days 20    
Growing Degree Days 34 (Base 50)    
Moisture  
Dew Point 72 °F    
Average Humidity 66    
Maximum Humidity 83    
Minimum Humidity 52    
Precipitation  
Precipitation 0.00 in - - ()
Sea Level Pressure  
Sea Level Pressure 29.64 in    
Wind  
Wind Speed 8 mph ()    
Max Wind Speed 17 mph    
Max Gust Speed -    
Visibility 6.0 miles    
Events      
Averages and records for this station are not official NWS values.
T = Trace of Precipitation, MM = Missing Value Source: Averaged Metar Reports

Daily Weather History Graph

Daily Weather History Graph

Search for Another Location

Airport:

Trip Planner

Search our weather history database for the weather conditions in past years. The results will help you decide how hot, cold, wet, or windy it might be!

Date:

Astronomy

Aug. 01, 2013 Rise Set
Actual Time 5:48 AM ICT 6:25 PM ICT
Civil Twilight 5:25 AM ICT 6:47 PM ICT
Nautical Twilight 4:59 AM ICT 7:14 PM ICT
Astronomical Twilight 4:33 AM ICT 7:40 PM ICT
Moon 1:04 AM ICT (8/1) 2:01 PM ICT (8/1)
Length of Visible Light 13h 22m
Length of Day
12h 37m
Waning Crescent, 27% of the Moon is Illuminated
Aug 1
Waning Crescent
Aug 7
New
Aug 14
First Quarter
Aug 21
Full
Aug 28
Last Quarter

Hourly Weather History & Observations

Time (ICT) Temp. Heat Index Dew Point Humidity Pressure Visibility Wind Dir Wind Speed Gust Speed Precip Events Conditions
12:00 AM 80.6 °F 85.4 °F 73.4 °F 79% 29.68 in 5.6 mi WSW 5.8 mph - N/A   Mostly Cloudy
12:30 AM 80.6 °F 85.4 °F 73.4 °F 79% 29.65 in 5.6 mi WSW 6.9 mph - N/A   Mostly Cloudy
1:00 AM 80.6 °F 85.4 °F 73.4 °F 79% 29.65 in 5.6 mi SW 4.6 mph - N/A   Mostly Cloudy
6:00 AM 78.8 °F - 73.4 °F 83% 29.65 in 5.6 mi West 3.5 mph - N/A   Mostly Cloudy
7:00 AM 80.6 °F 85.4 °F 73.4 °F 79% 29.65 in 5.6 mi WSW 5.8 mph - N/A   Mostly Cloudy
7:30 AM 80.6 °F 85.4 °F 73.4 °F 79% 29.68 in 5.6 mi West 4.6 mph - N/A   Mostly Cloudy
8:00 AM 82.4 °F 88.2 °F 73.4 °F 74% 29.68 in 6.2 mi West 8.1 mph - N/A   Mostly Cloudy
8:30 AM 84.2 °F 90.9 °F 73.4 °F 70% 29.68 in 6.2 mi West 6.9 mph - N/A   Mostly Cloudy
9:00 AM 84.2 °F 90.9 °F 73.4 °F 70% 29.68 in 6.2 mi WNW 5.8 mph - N/A   Mostly Cloudy
9:30 AM 86.0 °F 91.8 °F 71.6 °F 62% 29.68 in 6.2 mi WSW 10.4 mph - N/A   Mostly Cloudy
10:00 AM 86.0 °F 91.8 °F 71.6 °F 62% 29.68 in 6.2 mi West 13.8 mph - N/A   Mostly Cloudy
10:30 AM 87.8 °F 93.8 °F 71.6 °F 58% 29.68 in 6.2 mi West 12.7 mph - N/A   Mostly Cloudy
11:00 AM 87.8 °F 93.8 °F 71.6 °F 58% 29.68 in 6.2 mi West 6.9 mph - N/A   Mostly Cloudy
11:30 AM 87.8 °F 93.8 °F 71.6 °F 58% 29.65 in 6.2 mi WSW 11.5 mph - N/A   Mostly Cloudy
12:00 PM 89.6 °F 96.2 °F 71.6 °F 55% 29.65 in 6.2 mi West 12.7 mph - N/A   Scattered Clouds
12:30 PM 89.6 °F 96.2 °F 71.6 °F 55% 29.62 in 6.2 mi WSW 10.4 mph - N/A   Scattered Clouds
1:00 PM 89.6 °F 96.2 °F 71.6 °F 55% 29.62 in 6.2 mi West 12.7 mph - N/A   Scattered Clouds
1:30 PM 91.4 °F 98.4 °F 71.6 °F 52% 29.62 in 6.2 mi West 13.8 mph - N/A   Scattered Clouds
2:00 PM 91.4 °F 98.4 °F 71.6 °F 52% 29.59 in 6.2 mi West 15.0 mph - N/A   Scattered Clouds
2:30 PM 91.4 °F 98.4 °F 71.6 °F 52% 29.59 in 6.2 mi West 16.1 mph - N/A   Scattered Clouds
3:00 PM 91.4 °F 98.4 °F 71.6 °F 52% 29.59 in 6.2 mi West 15.0 mph - N/A   Scattered Clouds
3:30 PM 89.6 °F 98.2 °F 73.4 °F 59% 29.56 in 6.2 mi SW 12.7 mph - N/A   Scattered Clouds
4:00 PM 89.6 °F 94.7 °F 69.8 °F 52% 29.56 in 6.2 mi West 15.0 mph - N/A   Scattered Clouds
4:30 PM 89.6 °F 96.2 °F 71.6 °F 55% 29.56 in 6.2 mi WSW 17.3 mph - N/A   Scattered Clouds
5:30 PM 87.8 °F 91.4 °F 68.0 °F 52% 29.59 in 6.2 mi West 13.8 mph - N/A   Scattered Clouds
6:00 PM 86.0 °F 91.8 °F 71.6 °F 62% 29.59 in 6.2 mi West 9.2 mph - N/A   Scattered Clouds
6:30 PM 86.0 °F 91.8 °F 71.6 °F 62% 29.59 in 5.6 mi West 6.9 mph - N/A   Scattered Clouds
7:00 PM 84.2 °F 89.6 °F 71.6 °F 66% 29.62 in 5.6 mi WSW 6.9 mph - N/A   Scattered Clouds
7:30 PM 84.2 °F 89.6 °F 71.6 °F 66% 29.62 in 5.6 mi WSW 13.8 mph - N/A   Scattered Clouds
8:00 PM 82.4 °F 87.2 °F 71.6 °F 70% 29.65 in 5.6 mi WSW 9.2 mph - N/A   Scattered Clouds
8:30 PM 82.4 °F 88.2 °F 73.4 °F 74% 29.65 in 6.2 mi WSW 9.2 mph - N/A   Scattered Clouds
9:30 PM 82.4 °F 88.2 °F 73.4 °F 74% 29.65 in 6.2 mi WSW 8.1 mph - N/A   Scattered Clouds
10:00 PM 82.4 °F 89.5 °F 75.2 °F 79% 29.68 in 6.2 mi WSW 6.9 mph - N/A   Scattered Clouds
10:30 PM 82.4 °F 89.5 °F 75.2 °F 79% 29.68 in 6.2 mi WSW 4.6 mph - N/A   Scattered Clouds
11:00 PM 82.4 °F 89.5 °F 75.2 °F 79% 29.68 in 6.2 mi South 4.6 mph - N/A   Scattered Clouds
11:30 PM 80.6 °F 85.4 °F 73.4 °F 79% 29.65 in 6.2 mi South 5.8 mph - N/A   Scattered Clouds